Regional Weather Roundup
Issued by NWS Sterling, VA

Home | Current Version | Previous Version | Text Only | Print | Product List | Glossary On
Versions: 1 2 3 4 5 6 7 8 9 10 11 12 13 14 15 16 17 18 19 20 21 22 23 24 25 26 27 28
000
ASUS41 KLWX 251311
RWRLWX

REGIONAL WEATHER ROUNDUP
NATIONAL WEATHER SERVICE BALTIMORE MD/WASHINGTON DC
900 AM EDT TUE APR 25 2017

Note: "FAIR" indicates few or no clouds below 12,000 feet
with no significant weather and/or obstructions to visibility.
 TC=TEMPERATURE CELSIUS

 * =Non NWS site. Station does not report precipitation (e.g. rain,
    snow, etc.), thunder, or fog.

DCZ001-MDZ009-015-VAZ040>042-051-053>054-251400-
WASHINGTON METRO

CITY           SKY/WX    TMP DP  RH WIND       PRES   REMARKS
WASHINGTON NAT CLOUDY    58  56  93 NE21      29.87F
DULLES         FOG       53  52  96 N9        29.88F VSB 1
ANDREWS AFB    CLOUDY    55  55 100 NE15      29.85F
FT BELVOIR     DRIZZLE   57  54  88 N5        29.85F
QUANTICO       LGT RAIN  58  57  97 NE21G29   29.84F VSB 1
COLLEGE PARK*  CLOUDY    55  53  92 NE9G20    29.88F
LEESBURG*      LGT RAIN  52  52 100 NE12      29.91F
MANASSAS*        N/A     55  54  96 NE12      29.87S

$$

MDZ006>007-011-014-251400-
BALTIMORE METRO

CITY           SKY/WX    TMP DP  RH WIND       PRES   REMARKS
BWI AIRPORT    CLOUDY    55  55 100 NE15      29.90F
MD SCIENCE CTR   N/A     57  51  80 MISG      29.92F
MARTIN STATE   CLOUDY    55  55 100 NE6       29.94S
ANNAPOLIS      CLOUDY    57  55  93 N13       29.89F
FORT MEADE*    CLOUDY    54  52  94 NE10G18   29.92F

$$

MDZ012-015-019>023-251400-
MARYLAND EASTERN SHORE

CITY           SKY/WX    TMP DP  RH WIND       PRES   REMARKS
OCEAN CITY     RAIN      57  55  93 E14       29.82F FOG
SALISBURY      HVY RAIN  59  59 100 NE16      29.82F FOG
BAY BRIDGE AP* CLOUDY    55  54  94 NE12      29.90R FOG
CAMBRIDGE*     MOSUNNY   59  57  94 NE15      29.83F
EASTON*        CLOUDY    59  55  88 NE13G18   29.89F

$$

MDZ017>025-251400-
SOUTHERN MARYLAND

CITY           SKY/WX    TMP DP  RH WIND       PRES   REMARKS
PATUXENT RIVER LGT RAIN  57  57 100 NE18G28   29.80F FOG
ST INIGOES     LGT RAIN  59  57  93 NE15G25   29.77F FOG
LEONARDTOWN*   CLOUDY    55  55 100 NE7       29.81F

$$

MDZ003>005-251400-
NORTH CENTRAL MARYLAND

CITY           SKY/WX    TMP DP  RH WIND       PRES   REMARKS
FREDERICK*     CLOUDY    54  54 100 N13       29.95F FOG
HAGERSTOWN APT CLOUDY    54  51  90 NE9       29.93F
WESTMINSTER*   DRIZZLE   55  54  94 E13       29.93

$$

MDZ501>502-251400-
WESTERN MARYLAND

CITY           SKY/WX    TMP DP  RH WIND       PRES   REMARKS
OAKLAND*       FOG       43  43 100 E9        29.90F VSB<1/4
CUMBERLAND*    CLOUDY    54  48  82 N6        29.97F

$$

VAZ025>031-251400-
SHENANDOAH VALLEY

CITY           SKY/WX    TMP DP  RH WIND       PRES   REMARKS
WINCHESTER*    CLOUDY    48  45  87 N5        29.92S
FRONT ROYAL*   CLOUDY    48  48 100 N6        29.90F
LURAY*         HVY RAIN  50  50 100 N15G23    29.88S
NEW MARKET*    CLOUDY    49  47  94 N12G18    29.88S
STAUNTON*      DRIZZLE   49  48  98 N12       29.87S
WAYNESBORO*    CLOUDY    48  48 100 N10       29.84F

$$

WVZ021-048>050-054>055-251400-
EASTERN WEST VIRGINIA PANHANDLE

CITY           SKY/WX    TMP DP  RH WIND       PRES   REMARKS
MARTINSBURG    CLOUDY    51  47  86 N10       29.92S
PETERSBURG*    DRIZZLE   50  49  95 CALM      29.93S

$$

VAZ036>039-050-251400-
CENTRAL FOOTHILLS

CITY           SKY/WX    TMP DP  RH WIND       PRES   REMARKS
CHARLOTTESVILL LGT RAIN  55  53  93 NE17G25   29.81F FOG
CULPEPER*      LGT RAIN  54  54  98 N10       29.86F
ORANGE*        LGT RAIN  52  52 100 NE12G22   29.82F
GORDONSVILLE*  CLOUDY    53  52  98 NE13      29.80F
WARRENTON*     DRIZZLE   54  50  89 N10       29.85F

$$

VAZ055>057-251400-
NORTH AND CENTRAL PIEDMONT

CITY           SKY/WX    TMP DP  RH WIND       PRES   REMARKS
FREDERICKSBRG* DRIZZLE   56  56 100 N9G18     29.80F
STAFFORD*      LGT RAIN  55  55 100 N12G18    29.86F

$$

NCZ024-NYZ072-PAZ021-071-VAZ022-071-251400-
OTHER REGIONAL OBSERVATIONS

CITY           SKY/WX    TMP DP  RH WIND       PRES   REMARKS
NEW YORK CITY  CLOUDY    51  49  92 NE16G30   30.11F FOG
PHILADELPHIA   CLOUDY    54  52  93 NE15G23   29.99S FOG
PITTSBURGH     LGT RAIN  50  49  96 E7        29.93R
ROANOKE        LGT RAIN  52  51  97 NE10      29.79F
RICHMOND       HVY RAIN  59  58  96 NE16      29.68F VSB 1
RALEIGH        RAIN      59  57  93 NE9       29.63S FOG

$$

ANZ530>537-251400-
MARINE OBSERVATIONS

STATION/POSITION TIME  TEMP    WIND        PRES
                       AIR SEA DIR/SP/G
                 (UTC) (F)     (DEG/KT/KT) (MB)
THOMAS PT LIGHT  1300   56 56   40/ 17/ 19   N/A
BALT KEY BRIDGE  1248   56      50/ 15/ 18 1012.6F
COVE POINT       1248   58      70/ 19/ 25 1010.1F
LEWISETTA        1248   60 61   60/ 17/ 24 1006.8F
SOLOMONS ISLAND  1248   58 60   40/ 16/ 21   N/A
PINEY POINT      1242           70/ 16/ 19   N/A

$$





USA.gov is the U.S. government's official web portal to all federal, state and local government web resources and services.